Belen, NM

5:32 PM MDT on September 28, 2016 (GMT -0600)
Belen

Weather History for KE80 - May, 2013

Change the Weather History Date:

Tuesday, May 7, 2013

  Actual Average (KABQ) Record (KABQ)
Temperature  
Mean Temperature 60 °F 63 °F  
Max Temperature 76 °F 76 °F 92 °F (1989)
Min Temperature 45 °F 50 °F 25 °F (1917)
Degree Days  
Heating Degree Days 4 4  
Month to date heating degree days 30  
Since 1 July heating degree days 4134  
Cooling Degree Days 0 1  
Month to date cooling degree days 7  
Year to date cooling degree days 14  
Growing Degree Days 10 (Base 50)    
Moisture  
Dew Point 25 °F    
Average Humidity 27    
Maximum Humidity 51    
Minimum Humidity 12    
Precipitation  
Precipitation 0.00 in 0.02 in 0.17 in (1893)
Month to date precipitation 0.11  
Year to date precipitation 2.15  
Snow  
Snow 0.00 in - - ()
Month to date snowfall  
Since 1 July snowfall  
Snow Depth -    
Sea Level Pressure  
Sea Level Pressure 30.01 in    
Wind  
Wind Speed 6 mph (SSW)    
Max Wind Speed 25 mph    
Max Gust Speed 31 mph    
Visibility 10 miles    
Events Thunderstorm    
T = Trace of Precipitation, MM = Missing Value Source: NWS Daily Summary

Daily Weather History Graph

Daily Weather History Graph

Search for Another Location

Airport or City:

Trip Planner

Search our weather history database for the weather conditions in past years. The results will help you decide how hot, cold, wet, or windy it might be!

Date:

Astronomy

May. 07, 2013 Rise Set
Actual Time 6:10 AM MDT 7:57 PM MDT
Civil Twilight 5:43 AM MDT 8:24 PM MDT
Nautical Twilight 5:10 AM MDT 8:57 PM MDT
Astronomical Twilight 4:35 AM MDT 9:32 PM MDT
Moon 4:41 AM MDT (5/7) 6:03 PM MDT (5/7)
Length of Visible Light 14h 41m
Length of Day
13h 46m
Waning Crescent, 5% of the Moon is Illuminated
May 7
Waning Crescent
May 9
New
May 17
First Quarter
May 24
Full
May 31
Last Quarter

Hourly Weather History & Observations

Time (MDT) Temp. Windchill Dew Point Humidity Pressure Visibility Wind Dir Wind Speed Gust Speed Precip Events Conditions
12:15 AM 55.9 °F - 29.3 °F 36% 30.07 in 10.0 mi WSW 5.8 mph - N/A   Clear
12:35 AM 53.8 °F - 31.1 °F 42% 30.08 in 10.0 mi SW 3.5 mph - N/A   Clear
12:55 AM 54.3 °F - 30.7 °F 41% 30.07 in 10.0 mi WSW 3.5 mph - N/A   Clear
1:15 AM 51.8 °F - 31.1 °F 45% 30.07 in 10.0 mi SW 3.5 mph - N/A   Clear
1:35 AM 52.2 °F - 30.0 °F 43% 30.07 in 10.0 mi WNW 3.5 mph - N/A   Clear
1:55 AM 50.7 °F - 27.1 °F 40% 30.07 in 10.0 mi NNW 4.6 mph - N/A   Clear
2:15 AM 51.3 °F - 27.7 °F 40% 30.07 in 10.0 mi NW 9.2 mph - N/A   Clear
2:35 AM 51.1 °F - 27.9 °F 41% 30.06 in 10.0 mi NNW 6.9 mph - N/A   Clear
2:55 AM 52.7 °F - 27.0 °F 37% 30.06 in 10.0 mi NNW 3.5 mph - N/A   Clear
3:15 AM 50.7 °F - 30.0 °F 45% 30.07 in 10.0 mi East 3.5 mph - N/A   Clear
3:35 AM 50.0 °F - 29.3 °F 45% 30.07 in 10.0 mi WSW 3.5 mph - N/A   Clear
3:55 AM 48.6 °F - 28.4 °F 46% 30.07 in 10.0 mi Calm Calm - N/A   Clear
4:15 AM 53.8 °F - 27.9 °F 37% 30.07 in 10.0 mi WNW 3.5 mph - N/A   Clear
4:35 AM 51.1 °F - 28.0 °F 41% 30.07 in 10.0 mi SW 4.6 mph - N/A   Clear
4:55 AM 48.0 °F - 28.4 °F 47% 30.06 in 10.0 mi Calm Calm - N/A   Clear
5:15 AM 46.9 °F - 27.3 °F 46% 30.07 in 10.0 mi Calm Calm - N/A   Clear
5:35 AM 49.1 °F - 27.3 °F 43% 30.07 in 10.0 mi Calm Calm - N/A   Clear
5:55 AM 47.8 °F - 27.0 °F 44% 30.07 in 10.0 mi SW 3.5 mph - N/A   Clear
6:15 AM 45.3 °F - 27.0 °F 49% 30.07 in 10.0 mi Calm Calm - N/A   Clear
6:35 AM 46.0 °F - 25.9 °F 45% 30.07 in 10.0 mi Calm Calm - N/A   Clear
6:55 AM 46.4 °F 45.2 °F 26.4 °F 46% 30.08 in 10.0 mi ENE 3.5 mph - N/A   Clear
7:15 AM 49.3 °F - 32.0 °F 51% 30.08 in 10.0 mi Calm Calm - N/A   Clear
7:35 AM 52.3 °F - 32.0 °F 46% 30.08 in 10.0 mi Calm Calm - N/A   Clear
7:55 AM 54.5 °F - 32.2 °F 43% 30.08 in 10.0 mi Calm Calm - N/A   Clear
8:15 AM 57.7 °F - 30.0 °F 35% 30.08 in 10.0 mi Calm Calm - N/A   Clear
8:35 AM 60.1 °F - 29.8 °F 32% 30.08 in 10.0 mi NE 3.5 mph - N/A   Clear
8:55 AM 60.8 °F - 30.0 °F 31% 30.08 in 10.0 mi ENE 4.6 mph - N/A   Clear
9:15 AM 61.7 °F - 30.9 °F 31% 30.08 in 10.0 mi East 4.6 mph - N/A   Clear
9:35 AM 62.1 °F - 30.7 °F 31% 30.08 in 10.0 mi Calm Calm - N/A   Clear
9:55 AM 64.6 °F - 30.2 °F 28% 30.08 in 10.0 mi East 4.6 mph - N/A   Clear
10:15 AM 65.8 °F - 30.0 °F 26% 30.08 in 10.0 mi NE 3.5 mph - N/A   Clear
10:35 AM 66.0 °F - 30.2 °F 26% 30.08 in 10.0 mi Calm Calm - N/A   Clear
10:55 AM 67.5 °F - 30.6 °F 25% 30.08 in 10.0 mi Calm Calm - N/A   Clear
11:15 AM 68.2 °F - 30.2 °F 24% 30.08 in 10.0 mi Calm Calm - N/A   Clear
11:55 AM 69.8 °F - 28.9 °F 22% 30.06 in 10.0 mi SSW 11.5 mph 18.4 mph N/A   Clear
12:15 PM 68.9 °F - 28.9 °F 23% 30.04 in 10.0 mi North 6.9 mph - N/A   Clear
12:35 PM 70.3 °F - 27.7 °F 20% 30.04 in 10.0 mi ESE 6.9 mph - N/A   Clear
12:55 PM 71.8 °F - 27.9 °F 20% 30.03 in 10.0 mi South 8.1 mph - N/A   Clear
1:15 PM 71.6 °F - 27.9 °F 20% 30.02 in 10.0 mi East 6.9 mph - N/A   Scattered Clouds
1:35 PM 73.4 °F - 25.7 °F 17% 30.01 in 10.0 mi SSW 8.1 mph - N/A   Scattered Clouds
1:55 PM 73.4 °F - 24.1 °F 16% 30.00 in 10.0 mi WNW 3.5 mph - N/A   Clear
2:15 PM 75.0 °F - 22.6 °F 14% 30.00 in 10.0 mi South 8.1 mph 21.9 mph N/A   Clear
2:35 PM 74.5 °F - 23.2 °F 15% 29.98 in 10.0 mi SW 6.9 mph - N/A   Clear
2:55 PM 74.3 °F - 23.5 °F 15% 29.97 in 10.0 mi Calm Calm - N/A   Scattered Clouds
3:15 PM 75.2 °F - 23.0 °F 14% 29.96 in 10.0 mi South 9.2 mph - N/A   Scattered Clouds
3:35 PM 74.3 °F - 22.8 °F 15% 29.95 in 10.0 mi SE 13.8 mph 20.7 mph N/A   Mostly Cloudy
3:55 PM 74.7 °F - 21.6 °F 14% 29.94 in 10.0 mi SSW 10.4 mph 18.4 mph N/A   Overcast
4:15 PM 75.9 °F - 20.1 °F 12% 29.93 in 10.0 mi SE 6.9 mph - N/A   Mostly Cloudy
4:35 PM 76.1 °F - 19.2 °F 12% 29.92 in 10.0 mi SSW 20.7 mph 28.8 mph N/A   Mostly Cloudy
4:55 PM 73.9 °F - 20.5 °F 13% 29.92 in 10.0 mi WSW 18.4 mph 31.1 mph N/A   Mostly Cloudy
5:15 PM 72.9 °F - 21.2 °F 14% 29.91 in 10.0 mi SSW 16.1 mph 27.6 mph N/A   Mostly Cloudy
5:35 PM 72.3 °F - 21.2 °F 15% 29.91 in 10.0 mi East 3.5 mph 18.4 mph N/A   Overcast
5:55 PM 73.6 °F - 20.7 °F 14% 29.91 in 10.0 mi SSE 9.2 mph 18.4 mph N/A Thunderstorm Overcast
6:15 PM 73.6 °F - 20.8 °F 14% 29.90 in 10.0 mi South 19.6 mph 23.0 mph N/A Thunderstorm Overcast
6:35 PM 73.2 °F - 21.2 °F 14% 29.90 in 10.0 mi South 25.3 mph 29.9 mph N/A   Overcast
6:55 PM 72.5 °F - 21.0 °F 14% 29.90 in 10.0 mi South 18.4 mph 24.2 mph N/A   Mostly Cloudy
7:15 PM 71.6 °F - 20.7 °F 15% 29.90 in 10.0 mi South 23.0 mph 27.6 mph N/A   Scattered Clouds
7:35 PM 70.9 °F - 20.1 °F 15% 29.91 in 10.0 mi South 13.8 mph 20.7 mph N/A   Scattered Clouds
7:55 PM 70.3 °F - 18.9 °F 14% 29.92 in 10.0 mi South 10.4 mph - N/A   Mostly Cloudy
8:15 PM 69.4 °F - 18.5 °F 14% 29.93 in 10.0 mi SSE 8.1 mph - N/A   Mostly Cloudy
8:35 PM 68.9 °F - 16.9 °F 14% 29.93 in 10.0 mi South 11.5 mph - N/A   Mostly Cloudy
8:55 PM 68.4 °F - 16.7 °F 14% 29.93 in 10.0 mi SSE 12.7 mph - N/A   Scattered Clouds
9:15 PM 67.3 °F - 17.4 °F 15% 29.93 in 10.0 mi South 16.1 mph - N/A   Scattered Clouds
9:35 PM 67.1 °F - 17.2 °F 15% 29.93 in 10.0 mi South 19.6 mph 24.2 mph N/A   Scattered Clouds
9:55 PM 65.3 °F - 16.9 °F 16% 29.94 in 10.0 mi SSW 16.1 mph - N/A   Clear
10:15 PM 63.1 °F - 16.2 °F 16% 29.95 in 10.0 mi SW 10.4 mph - N/A   Clear
10:35 PM 61.3 °F - 16.7 °F 18% 29.96 in 10.0 mi SW 10.4 mph - N/A   Clear
10:55 PM 61.3 °F - 15.8 °F 17% 29.97 in 10.0 mi WSW 9.2 mph - N/A   Clear
11:15 PM 58.3 °F - 15.6 °F 19% 29.97 in 10.0 mi SSW 5.8 mph - N/A   Clear
11:35 PM 55.6 °F - 14.9 °F 20% 29.97 in 10.0 mi South 5.8 mph - N/A   Clear
11:55 PM 56.1 °F - 15.4 °F 20% 29.97 in 10.0 mi SSW 6.9 mph - N/A   Clear